CW2969 Weather Reports


time (UTC)temp
C
wind
direction
speed
KPH
gust
KPH
rain 1hr
cm
rain 24hr
cm
rain mn
cm
humidity
%
barometer
mb
20260906002511 36 101 12.9 17.7 0.00 0.00 0.00 42 1009.2
20260906001511 36 126 6.4 19.3 0.00 0.00 0.00 41 1009.1
20260906001011 36 155 11.3 19.3 0.00 0.00 0.00 40 1009.1
20260906000512 36 125 6.4 12.9 0.00 0.00 0.00 40 1009.1
20260906000011 37 145 4.8 11.3 0.00 0.00 0.00 39 1009.1
20260905235511 37 114 4.8 14.5 0.00 0.00 0.00 39 1009.0
20260905235011 37 294 4.8 16.1 0.00 0.00 0.00 38 1009.0
20260905234511 37 61 14.5 16.1 0.00 0.00 0.00 38 1009.1
20260905234011 37 104 9.7 11.3 0.00 0.00 0.00 38 1009.0
20260905233011 37 113 1.6 11.3 0.00 0.00 0.00 38 1008.9
20260905232511 37 253 0.0 1.6 0.00 0.00 0.00 38 1008.9
20260905232011 37 141 0.0 4.8 0.00 0.00 0.00 37 1008.9
20260905231011 37 228 1.6 6.4 0.00 0.00 0.00 38 1009.0
20260905230011 37 241 3.2 4.8 0.00 0.00 0.00 38 1008.9
20260905225011 37 123 1.6 3.2 0.00 0.00 0.00 39 1008.9
20260905224511 37 107 3.2 4.8 0.00 0.00 0.00 39 1008.9
20260905224010 37 113 0.0 6.4 0.00 0.00 0.00 39 1008.9
20260905223511 37 128 6.4 6.4 0.00 0.00 0.00 39 1008.9
20260905223010 37 90 0.0 14.5 0.00 0.00 0.00 38 1008.9
20260905222510 37 105 6.4 14.5 0.00 0.00 0.00 38 1009.0
20260905222010 37 75 4.8 8.0 0.00 0.00 0.00 37 1009.0
20260905221510 37 244 0.0 1.6 0.00 0.00 0.00 37 1009.1
20260905221010 37 94 1.6 6.4 0.00 0.00 0.00 37 1009.2
20260905220510 37 192 3.2 9.7 0.00 0.00 0.00 37 1009.2
20260905220010 38 85 4.8 9.7 0.00 0.00 0.00 37 1009.2
20260905215510 37 338 1.6 4.8 0.00 0.00 0.00 37 1009.1
20260905215010 38 228 3.2 8.0 0.00 0.00 0.00 36 1009.1
20260905214510 38 113 3.2 9.7 0.00 0.00 0.00 37 1009.2
20260905214010 38 107 3.2 9.7 0.00 0.00 0.00 37 1009.1
20260905213510 37 250 0.0 8.0 0.00 0.00 0.00 37 1009.1
20260905213010 37 126 0.0 11.3 0.00 0.00 0.00 37 1009.2
20260905212509 37 98 1.6 11.3 0.00 0.00 0.00 37 1009.2
20260905212009 37 115 3.2 3.2 0.00 0.00 0.00 37 1009.2
20260905211509 37 107 1.6 8.0 0.00 0.00 0.00 37 1009.2
20260905211009 37 132 3.2 8.0 0.00 0.00 0.00 37 1009.4
20260905210510 37 236 1.6 8.0 0.00 0.00 0.00 37 1009.4
20260905210009 37 155 4.8 6.4 0.00 0.00 0.00 38 1009.5
20260905205509 37 311 0.0 6.4 0.00 0.00 0.00 38 1009.5
20260905205009 37 319 4.8 8.0 0.00 0.00 0.00 38 1009.6
20260905204509 37 301 6.4 9.7 0.00 0.00 0.00 39 1009.7
20260905204439 37 315 3.2 12.9 0.00 0.00 0.00 39 1010.0
20260905202509 37 120 1.6 6.4 0.00 0.00 0.00 39 1010.2
20260905202009 37 72 1.6 6.4 0.00 0.00 0.00 39 1010.3
20260905201509 37 98 3.2 11.3 0.00 0.00 0.00 40 1010.4
20260905201009 36 186 3.2 14.5 0.00 0.00 0.00 40 1010.5
20260905200509 37 106 9.7 14.5 0.00 0.00 0.00 41 1010.5
20260905200009 36 139 11.3 12.9 0.00 0.00 0.00 42 1010.7
20260905195509 36 118 4.8 11.3 0.00 0.00 0.00 43 1010.7
20260905195008 36 232 4.8 8.0 0.00 0.00 0.00 44 1010.7
20260905194509 36 326 4.8 9.7 0.00 0.00 0.00 44 1010.8
20260905194008 36 300 8.0 16.1 0.00 0.00 0.00 44 1010.9
20260905193508 36 162 16.1 16.1 0.00 0.00 0.00 44 1011.0
20260905193009 36 144 1.6 6.4 0.00 0.00 0.00 45 1011.1
20260905192508 36 221 1.6 11.3 0.00 0.00 0.00 45 1011.1
20260905192008 36 119 0.0 11.3 0.00 0.00 0.00 45 1011.2
20260905191508 36 167 1.6 14.5 0.00 0.00 0.00 47 1011.2
20260905190008 36 201 3.2 9.7 0.00 0.00 0.00 48 1011.5
20260905185507 35 213 3.2 9.7 0.00 0.00 0.00 48 1011.6
20260905185007 35 119 1.6 8.0 0.00 0.00 0.00 48 1011.7
20260905184507 35 113 6.4 9.7 0.00 0.00 0.00 49 1011.9
20260905184007 35 108 4.8 9.7 0.00 0.00 0.00 49 1011.9
20260905183507 35 228 3.2 6.4 0.00 0.00 0.00 51 1011.9
20260905183007 35 309 3.2 11.3 0.00 0.00 0.00 51 1012.0
20260905182507 35 190 8.0 11.3 0.00 0.00 0.00 51 1012.2
20260905182007 35 197 4.8 6.4 0.00 0.00 0.00 51 1012.3
20260905181507 34 155 1.6 9.7 0.00 0.00 0.00 51 1012.4
20260905181007 34 159 8.0 12.9 0.00 0.00 0.00 52 1012.5
20260905180507 34 111 4.8 12.9 0.00 0.00 0.00 53 1012.7
20260905175507 33 186 6.4 12.9 0.00 0.00 0.00 56 1012.8
20260905175007 33 171 8.0 12.9 0.00 0.00 0.00 57 1012.9
20260905174507 33 302 4.8 12.9 0.00 0.00 0.00 57 1013.0
20260905173507 33 178 6.4 9.7 0.00 0.00 0.00 59 1013.3
20260905173006 33 177 3.2 9.7 0.00 0.00 0.00 59 1013.3
20260905172507 33 347 1.6 8.0 0.00 0.00 0.00 61 1013.3
20260905172006 33 312 0.0 6.4 0.00 0.00 0.00 62 1013.4
20260905170006 32 276 3.2 6.4 0.00 0.00 0.00 64 1013.5
20260905165006 32 236 8.0 16.1 0.00 0.00 0.00 65 1013.5
20260905164506 32 92 3.2 11.3 0.00 0.00 0.00 66 1013.6
20260905164006 32 130 4.8 12.9 0.00 0.00 0.00 66 1013.6
20260905163006 31 96 1.6 12.9 0.00 0.00 0.00 68 1013.7
20260905162506 31 143 1.6 6.4 0.00 0.00 0.00 70 1013.8
20260905162006 31 172 3.2 8.0 0.00 0.00 0.00 70 1013.8
20260905161506 31 224 4.8 11.3 0.00 0.00 0.00 70 1013.8
20260905161006 31 244 3.2 11.3 0.00 0.00 0.00 70 1013.8
20260905155506 30 200 3.2 6.4 0.00 0.00 0.00 72 1013.8
20260905155006 30 298 0.0 12.9 0.00 0.00 0.00 73 1013.8
20260905154005 30 192 1.6 8.0 0.00 0.00 0.00 74 1013.8
20260905153505 30 198 1.6 8.0 0.00 0.00 0.00 74 1013.8
20260905153005 30 136 3.2 8.0 0.00 0.00 0.00 76 1013.8
20260905152505 30 347 3.2 6.4 0.00 0.00 0.00 77 1013.7
20260905152005 29 289 3.2 8.0 0.00 0.00 0.00 77 1013.8
20260905151505 29 192 8.0 8.0 0.00 0.00 0.00 77 1013.9
20260905151005 29 167 1.6 4.8 0.00 0.03 0.00 78 1013.9
20260905150505 28 191 4.8 6.4 0.00 0.03 0.00 78 1013.8
20260905150005 28 269 4.8 6.4 0.00 0.03 0.00 78 1013.8
20260905145504 28 196 3.2 6.4 0.00 0.05 0.00 79 1013.8
20260905145005 28 271 3.2 4.8 0.00 0.05 0.00 79 1013.8
20260905144505 28 323 4.8 4.8 0.00 0.05 0.00 79 1013.8
20260905144005 28 126 0.0 1.6 0.00 0.05 0.00 79 1013.8
20260905143504 28 158 0.0 3.2 0.00 0.05 0.00 80 1013.7
20260905143004 28 227 1.6 8.0 0.00 0.05 0.00 80 1013.8
20260905142504 28 181 3.2 8.0 0.00 0.05 0.00 80 1013.7
20260905142004 28 225 0.0 4.8 0.00 0.05 0.00 80 1013.7
20260905141534 28 136 3.2 4.8 0.00 0.05 0.00 80 1013.6
20260905140034 27 157 3.2 4.8 0.00 0.05 0.00 81 1013.5
20260905135534 27 130 0.0 1.6 0.00 0.05 0.00 81 1013.5
20260905135034 27 178 1.6 1.6 0.00 0.05 0.00 81 1013.5
20260905134534 27 134 0.0 0.0 0.00 0.05 0.00 81 1013.5
20260905134034 27 124 0.0 4.8 0.00 0.05 0.00 81 1013.4
20260905133034 26 124 0.0 6.4 0.00 0.05 0.00 81 1013.3
20260905132534 26 142 4.8 6.4 0.00 0.05 0.00 81 1013.3
20260905132034 26 145 0.0 0.0 0.00 0.05 0.00 81 1013.2
20260905131534 26 104 0.0 4.8 0.00 0.05 0.00 81 1013.2
20260905131034 26 104 4.8 4.8 0.00 0.05 0.00 82 1013.1
20260905130534 26 113 0.0 4.8 0.00 0.05 0.00 82 1013.2
20260905130034 26 142 0.0 0.0 0.00 0.05 0.00 82 1013.0
20260905125533 25 142 0.0 0.0 0.00 0.05 0.00 82 1013.0
20260905125034 25 142 0.0 0.0 0.00 0.05 0.00 82 1012.9
20260905124533 25 142 0.0 0.0 0.00 0.05 0.00 82 1012.8
20260905124034 25 142 0.0 0.0 0.00 0.05 0.00 82 1012.7
20260905123033 25 142 0.0 0.0 0.00 0.05 0.00 82 1012.8
20260905122533 25 142 0.0 0.0 0.00 0.05 0.00 82 1012.8
20260905122033 25 142 0.0 0.0 0.00 0.05 0.00 82 1012.7
20260905121534 25 142 0.0 0.0 0.00 0.05 0.00 82 1012.7
20260905121033 25 142 0.0 0.0 0.00 0.05 0.00 82 1012.6
20260905120033 25 142 0.0 0.0 0.00 0.05 0.00 82 1012.6
20260905115533 25 142 0.0 0.0 0.00 0.05 0.00 82 1012.5
20260905115033 25 142 0.0 0.0 0.00 0.05 0.00 82 1012.4
20260905114533 25 142 0.0 0.0 0.00 0.05 0.00 82 1012.5
20260905114033 25 142 0.0 0.0 0.00 0.05 0.00 82 1012.4
20260905113533 25 142 0.0 0.0 0.00 0.05 0.00 82 1012.4
20260905112533 25 142 0.0 0.0 0.00 0.05 0.00 82 1012.4
20260905112032 25 142 0.0 0.0 0.00 0.05 0.00 81 1012.4
20260905111532 25 142 0.0 0.0 0.00 0.05 0.00 81 1012.3
20260905111033 25 142 0.0 0.0 0.00 0.05 0.00 81 1012.2
20260905110533 25 142 0.0 0.0 0.00 0.05 0.00 81 1012.2
20260905110032 25 142 0.0 0.0 0.00 0.05 0.00 81 1012.2
20260905105532 25 142 0.0 0.0 0.00 0.05 0.00 81 1012.2
20260905105032 25 142 0.0 0.0 0.00 0.05 0.00 81 1012.1
20260905104032 25 142 0.0 0.0 0.00 0.05 0.00 81 1012.1
20260905103532 25 142 0.0 0.0 0.00 0.05 0.00 81 1012.1
20260905103032 25 142 0.0 0.0 0.00 0.05 0.00 81 1012.1
20260905102532 25 142 0.0 0.0 0.00 0.05 0.00 81 1012.1
20260905102032 25 142 0.0 0.0 0.00 0.05 0.00 81 1012.2
20260905101531 25 142 0.0 0.0 0.00 0.05 0.00 81 1012.2
20260905101032 25 142 0.0 0.0 0.00 0.05 0.00 81 1012.1
20260905100532 25 142 0.0 0.0 0.00 0.05 0.00 81 1012.0
20260905100031 26 142 0.0 0.0 0.00 0.05 0.00 81 1012.0
20260905095531 26 142 0.0 0.0 0.00 0.05 0.00 81 1011.9
20260905095002 26 142 0.0 0.0 0.00 0.05 0.00 81 1011.9
20260905094531 26 142 0.0 0.0 0.00 0.05 0.00 80 1011.9
20260905094032 26 142 0.0 0.0 0.00 0.05 0.00 80 1011.9
20260905093031 26 142 0.0 0.0 0.00 0.05 0.00 80 1011.9
20260905092531 26 142 0.0 0.0 0.00 0.05 0.00 80 1011.9
20260905092031 26 142 0.0 0.0 0.00 0.05 0.00 80 1011.9
20260905090531 26 125 0.0 0.0 0.00 0.05 0.00 80 1012.0
20260905090031 26 233 0.0 0.0 0.00 0.05 0.00 80 1012.0
20260905085531 26 204 0.0 0.0 0.00 0.05 0.00 80 1011.9
20260905085031 26 200 0.0 3.2 0.00 0.05 0.00 80 1012.0
20260905084031 26 215 0.0 0.0 0.00 0.05 0.00 80 1012.0
20260905083531 26 207 0.0 1.6 0.00 0.05 0.00 80 1012.0
20260905083030 26 218 0.0 3.2 0.00 0.05 0.00 80 1012.1
20260905082531 26 215 1.6 3.2 0.00 0.05 0.00 80 1012.1
20260905081530 26 157 0.0 4.8 0.00 0.05 0.00 80 1012.2
20260905081030 26 215 1.6 4.8 0.00 0.05 0.00 80 1012.2
20260905080530 26 242 0.0 1.6 0.00 0.05 0.00 79 1012.3
20260905080030 26 197 1.6 1.6 0.00 0.05 0.00 79 1012.3
20260905075030 26 222 0.0 0.0 0.00 0.05 0.00 79 1012.3
20260905073530 26 221 0.0 1.6 0.00 0.05 0.00 79 1012.3
20260905072530 26 194 0.0 0.0 0.00 0.05 0.00 78 1012.5
20260905072029 26 194 0.0 1.6 0.00 0.05 0.00 78 1012.6
20260905071529 27 194 0.0 3.2 0.00 0.05 0.00 78 1012.6
20260905071030 27 194 1.6 6.4 0.00 0.05 0.00 78 1012.6
20260905070530 27 216 1.6 6.4 0.00 0.05 0.00 78 1012.6
20260905065029 27 206 0.0 1.6 0.00 0.05 0.00 77 1012.6
20260905064029 27 192 1.6 3.2 0.00 0.05 0.00 77 1012.6
20260905063529 27 225 1.6 1.6 0.00 0.05 0.00 76 1012.7
20260905062529 27 225 0.0 0.0 0.00 0.05 0.00 76 1012.7
20260905061529 27 227 0.0 4.8 0.00 0.05 0.00 76 1012.7
20260905061029 27 130 0.0 1.6 0.00 0.05 0.00 75 1012.8
20260905060529 27 182 0.0 3.2 0.00 0.05 0.00 75 1012.8
20260905060029 27 182 0.0 3.2 0.00 0.05 0.00 75 1012.7
20260905055029 27 210 0.0 1.6 0.00 0.05 0.00 74 1012.7
20260905054529 27 157 1.6 1.6 0.00 0.05 0.00 74 1012.7
20260905053529 27 195 1.6 3.2 0.00 0.05 0.00 74 1012.8
20260905053029 28 142 3.2 3.2 0.00 0.05 0.00 73 1012.8
20260905052529 28 142 0.0 3.2 0.00 0.05 0.00 73 1012.8
20260905052028 28 248 0.0 3.2 0.00 0.05 0.00 73 1012.8
20260905051528 28 166 0.0 3.2 0.00 0.05 0.00 73 1012.8
20260905051029 28 202 0.0 3.2 0.00 0.05 0.00 73 1012.8
20260905050528 28 178 1.6 3.2 0.00 0.05 0.00 72 1012.7
20260905050028 28 244 0.0 3.2 0.00 0.05 0.00 72 1012.8
20260905045528 28 109 1.6 3.2 0.00 0.05 0.05 72 1012.8
20260905045028 28 159 0.0 6.4 0.00 0.05 0.05 72 1012.7
20260905044528 28 104 3.2 6.4 0.00 0.05 0.05 71 1012.7
20260905044028 28 150 1.6 6.4 0.00 0.05 0.05 71 1012.7
20260905043528 28 106 0.0 1.6 0.00 0.05 0.05 71 1012.7
20260905043028 28 118 0.0 1.6 0.00 0.05 0.05 71 1012.8
20260905042528 28 115 0.0 4.8 0.00 0.05 0.05 71 1012.8
20260905042028 28 130 3.2 4.8 0.00 0.05 0.05 70 1012.7
20260905041528 28 144 1.6 4.8 0.00 0.05 0.05 70 1012.7
20260905041028 28 141 0.0 8.0 0.00 0.05 0.05 70 1012.6
20260905040528 28 158 4.8 9.7 0.00 0.05 0.05 70 1012.7
20260905040028 29 165 1.6 9.7 0.00 0.05 0.05 70 1012.7
20260905035528 29 135 1.6 9.7 0.00 0.05 0.05 69 1012.6
20260905035027 29 111 4.8 9.7 0.00 0.05 0.05 69 1012.6
20260905034528 29 175 1.6 6.4 0.00 0.05 0.05 69 1012.7
20260905033528 29 152 0.0 11.3 0.00 0.05 0.05 69 1012.7
20260905033028 29 118 4.8 11.3 0.00 0.05 0.05 68 1012.6
20260905032527 29 117 3.2 3.2 0.00 0.05 0.05 68 1012.6
20260905032027 29 155 3.2 3.2 0.00 0.05 0.05 67 1012.5
20260905031027 30 143 1.6 6.4 0.00 0.05 0.05 67 1012.3
20260905030027 30 111 1.6 9.7 0.00 0.05 0.05 66 1012.3
20260905025528 30 128 6.4 9.7 0.00 0.05 0.05 66 1012.3
20260905025027 30 130 0.0 3.2 0.00 0.05 0.05 65 1012.2
20260905024527 30 130 3.2 4.8 0.00 0.05 0.05 65 1012.2
20260905024027 30 128 0.0 11.3 0.00 0.05 0.05 64 1012.2
20260905023527 30 154 6.4 11.3 0.00 0.05 0.05 64 1012.1
20260905023027 30 120 0.0 3.2 0.00 0.05 0.05 64 1012.1
20260905022527 30 103 0.0 3.2 0.00 0.05 0.05 64 1012.0
20260905021527 30 101 0.0 4.8 0.00 0.05 0.05 63 1011.7
20260905020527 30 122 4.8 9.7 0.00 0.05 0.05 63 1011.6
20260905020027 30 143 0.0 1.6 0.00 0.05 0.05 63 1011.6
20260905015527 30 143 1.6 1.6 0.00 0.05 0.05 63 1011.6
20260905015026 30 129 0.0 0.0 0.00 0.05 0.05 62 1011.6
20260905014526 30 129 0.0 4.8 0.00 0.05 0.05 62 1011.6
20260905014026 30 99 4.8 4.8 0.00 0.05 0.05 62 1011.7
20260905013527 30 277 0.0 3.2 0.00 0.05 0.05 62 1011.6
20260905013026 30 115 0.0 3.2 0.00 0.05 0.05 62 1011.5
20260905012026 31 150 1.6 9.7 0.00 0.05 0.05 61 1011.5
20260905011526 31 169 3.2 9.7 0.00 0.05 0.05 61 1011.6
20260905011026 31 249 0.0 9.7 0.00 0.05 0.05 61 1011.4
20260905010526 31 119 3.2 9.7 0.00 0.05 0.05 61 1011.3
20260905010026 31 131 8.0 8.0 0.00 0.05 0.05 61 1011.2
20260905005526 31 21 3.2 6.4 0.00 0.05 0.05 61 1011.1
20260905005026 31 104 4.8 8.0 0.00 0.05 0.05 60 1011.0
20260905004025 32 147 6.4 12.9 0.00 0.05 0.05 59 1011.0
20260905003525 32 248 3.2 12.9 0.00 0.05 0.05 59 1010.9
20260905003025 32 15 3.2 11.3 0.00 0.05 0.05 59 1010.9